This is the latest recevied weather packets stored in our database for station/object OE-11051. If no packets are shown the sender has not sent any weather packets the latest 10 day(s).
| Time | Temp. | Humidity | Pressure | Rain* | Wind** | Luminosity | Snow |
|---|---|---|---|---|---|---|---|
| 1787908279 | 27.22° C | 54% | 1008.3 hPa | 0 mm | - | 580 W/m² | - |
| 1787907907 | 27.22° C | 54% | 1008.9 hPa | 0 mm | - | 548 W/m² | - |
| 1787907307 | 26.67° C | 55% | 1009.2 hPa | 0 mm | - | 484 W/m² | - |
| 1787906479 | 25.56° C | 58% | 1009.6 hPa | 0 mm | - | 490 W/m² | - |
| 1787906106 | 25.56° C | 58% | 1009.6 hPa | 0 mm | - | 490 W/m² | - |
| 1787905506 | 25.56° C | 58% | 1009.7 hPa | 0 mm | - | 464 W/m² | - |
| 1787904680 | 25° C | 60% | 1009.7 hPa | 0 mm | - | 438 W/m² | - |
| 1787904307 | 24.44° C | 62% | 1009.7 hPa | 0 mm | - | 419 W/m² | - |
| 1787903707 | 23.89° C | 62% | 1009.8 hPa | 0 mm | - | 393 W/m² | - |
| 1787902879 | 23.33° C | 63% | 1009.9 hPa | 0 mm | - | 367 W/m² | - |
| 1787902507 | 23.33° C | 63% | 1010 hPa | 0 mm | - | 342 W/m² | - |
| 1787901907 | 22.78° C | 64% | 1010 hPa | 0 mm | - | 322 W/m² | - |
| 1787901079 | 22.78° C | 64% | 1010.1 hPa | 0 mm | - | 264 W/m² | - |
| 1787900706 | 22.22° C | 65% | 1010.4 hPa | 0 mm | - | 258 W/m² | - |
| 1787900107 | 21.67° C | 66% | 1010.6 hPa | 0 mm | - | 219 W/m² | - |
| 1787899280 | 21.67° C | 66% | 1010.9 hPa | 0 mm | - | 219 W/m² | - |
| 1787898907 | 21.67° C | 65% | 1011 hPa | 0 mm | - | 187 W/m² | - |
| 1787898307 | 21.11° C | 67% | 1011.1 hPa | 0 mm | - | 168 W/m² | - |
| 1787897479 | 21.11° C | 69% | 1011.2 hPa | 0 mm | - | 142 W/m² | - |
| 1787897106 | 20.56° C | 72% | 1011.3 hPa | 0 mm | - | 116 W/m² | - |
| 1787896506 | 20° C | 73% | 1011.4 hPa | 0 mm | - | 97 W/m² | - |
| 1787895679 | 20° C | 73% | 1011.4 hPa | 0 mm | - | 71 W/m² | - |
| 1787895307 | 19.44° C | 76% | 1011.2 hPa | 0 mm | - | 39 W/m² | - |
| 1787894707 | 19.44° C | 77% | 1011.2 hPa | 0 mm | - | 32 W/m² | - |
| 1787893880 | 19.44° C | 76% | 1011 hPa | 0 mm | - | 19 W/m² | - |
* Rain latest hour (hover to see other rain measurements)
** Current wind speed in m/s (hover to see current wind gust speed)